GFSSGP_850_spd_276.txt.gz
Wind_Speed
12 9 13 10 6 6 10 11 16 14 14 16 26 21 21 17 7 4 17 13 11 12 13 13 13 12 12 11 11 10 8 7 6 4 3 3 3 3 4 5 5 6 6 6 6 6 6 6 7
11 9 12 11 8 6 4 11 18 12 15 13 26 21 8 16 14 21 19 16 14 13 14 13 12 12 11 11 11 10 8 6 5 3 2 1 1 2 3 4 5 5 6 6 7 7 7 8 8
11 5 10 7 14 5 3 15 28 10 8 15 21 19 9 14 16 17 18 19 14 14 12 12 11 11 10 10 10 10 8 6 4 2 1 0 1 1 2 3 4 5 5 5 6 7 8 9 9
9 12 12 9 11 9 10 14 42 10 8 13 24 16 23 16 16 18 20 17 14 15 9 12 10 9 9 9 9 8 7 5 3 3 2 1 0 1 2 3 3 4 5 6 7 7 8 9 10
12 13 11 17 13 23 19 38 21 9 15 12 24 21 20 15 18 21 19 15 16 18 8 10 10 9 9 8 7 6 5 4 3 3 2 1 1 1 1 1 3 4 4 5 6 7 8 10 12
15 20 15 17 7 13 4 12 12 10 17 17 20 23 19 15 18 18 16 15 15 13 9 11 10 10 9 8 8 7 6 5 4 3 2 2 1 1 1 2 2 2 4 5 7 10 12 14 16
15 12 18 23 2 5 16 44 24 16 12 10 16 20 17 16 15 16 15 14 15 11 10 10 11 10 10 9 9 8 7 5 4 3 3 2 1 1 1 1 2 5 8 10 12 15 17 20 22
20 14 22 23 14 8 15 49 16 28 7 8 7 10 18 20 17 15 16 14 13 13 8 10 11 10 10 9 9 8 6 5 4 3 2 1 1 3 5 5 6 10 13 15 17 18 19 22 22
20 13 15 23 4 10 25 9 41 41 20 10 14 24 25 20 17 17 12 13 13 13 10 10 10 8 7 5 7 6 5 4 3 2 7 9 4 9 8 6 13 14 16 19 16 17 20 23 21
22 13 23 11 2 18 4 18 38 7 14 16 20 25 22 20 16 16 14 15 13 12 12 15 13 7 10 9 2 4 5 5 5 5 4 6 1 5 5 13 14 12 14 18 16 17 20 20 20
22 17 21 17 4 12 21 19 15 37 16 21 23 25 22 19 15 15 15 16 14 12 12 15 13 11 15 12 5 4 3 5 6 11 9 6 5 3 4 6 9 11 12 14 19 22 20 25 29
21 24 25 26 8 8 14 15 16 26 30 28 32 22 21 18 13 14 14 14 14 13 12 15 15 16 6 12 4 11 7 10 6 10 6 8 6 9 12 9 12 13 13 18 23 27 32 36 36
19 22 25 19 12 10 18 15 11 36 15 18 37 16 18 15 12 12 12 13 17 16 15 17 17 19 13 12 12 9 11 7 13 12 16 12 10 13 12 15 16 16 19 23 31 35 37 35 34
19 21 20 27 14 13 15 17 14 28 14 24 34 28 19 18 14 13 13 15 16 19 19 19 19 18 24 18 12 16 14 11 11 12 21 13 12 13 15 15 15 17 23 30 34 34 31 30 27
17 14 13 22 14 18 16 14 16 14 32 49 15 14 22 19 20 18 18 17 19 20 21 20 17 15 16 21 19 15 10 11 9 19 21 16 13 15 14 14 14 19 26 33 32 29 28 25 29
13 13 15 17 19 20 16 16 18 17 8 16 16 17 18 22 23 24 19 20 19 19 19 22 17 16 15 16 15 11 14 14 16 17 21 14 13 16 15 15 18 25 31 31 26 23 25 29 28
14 13 19 20 21 11 11 16 21 20 13 11 9 18 20 19 22 28 27 25 24 22 23 19 20 15 15 16 15 14 15 17 15 15 11 14 8 14 16 18 23 28 28 23 23 27 29 31 27
16 18 13 15 13 11 15 14 19 4 13 16 15 12 15 25 26 17 29 28 24 24 21 19 19 21 12 14 17 12 19 16 15 15 18 18 17 18 20 19 25 27 24 23 25 25 27 23 19
21 15 12 15 12 12 14 10 14 15 14 10 14 17 14 16 6 6 34 20 19 22 24 18 16 18 12 14 12 16 17 12 19 16 21 23 21 19 23 24 23 23 24 22 20 25 21 19 17
17 11 16 15 6 8 8 12 14 11 11 12 10 16 19 19 15 16 12 24 15 20 21 20 15 17 20 18 17 15 12 11 13 16 19 20 19 22 21 22 20 22 23 15 20 17 17 19 17
11 13 15 16 13 9 7 13 17 19 16 4 1 10 16 13 14 20 18 5 11 15 15 14 15 11 13 8 8 6 10 12 13 17 19 18 20 20 18 18 18 20 16 16 17 18 19 20 19
14 16 15 16 15 12 16 13 16 19 14 10 6 9 12 13 24 22 13 10 9 4 6 6 4 5 7 8 7 6 6 11 12 10 15 19 19 18 17 17 16 16 17 14 15 15 17 19 19
16 15 13 16 15 15 19 11 12 11 16 13 15 9 6 11 17 17 12 11 11 9 1 3 3 5 6 5 8 6 9 2 9 13 13 13 15 16 13 15 19 15 17 16 12 14 16 16 18
15 11 13 8 11 13 17 16 16 11 14 15 16 11 9 10 13 15 14 13 13 12 6 9 7 5 4 4 5 10 9 10 10 12 8 12 5 10 12 19 21 18 18 16 16 16 16 15 18
15 10 8 11 11 13 17 17 14 12 22 21 20 17 14 13 13 13 13 12 12 10 8 9 8 8 6 3 3 5 5 6 6 11 10 11 10 9 14 19 18 16 18 15 17 19 18 18 18
17 15 11 11 11 8 14 15 9 15 23 27 24 21 18 16 15 14 13 12 11 11 10 8 8 7 4 2 1 2 3 4 3 10 11 8 12 11 17 18 19 15 14 18 16 18 16 20 23
17 15 19 17 17 13 4 9 11 14 14 23 24 22 22 18 17 16 15 13 12 11 10 10 9 6 2 2 4 6 7 6 8 10 11 10 13 15 15 16 14 15 15 17 17 19 20 22 23
20 16 14 10 12 14 12 14 10 18 16 16 19 21 21 21 18 17 15 15 12 12 11 9 6 5 3 1 2 3 7 10 8 9 10 13 14 15 15 15 16 16 14 17 20 17 23 23 20
13 16 15 10 10 10 10 3 11 12 11 14 20 24 19 20 19 18 16 14 13 11 9 7 5 3 1 2 3 6 7 7 9 7 11 15 15 15 15 16 15 15 15 16 20 21 18 21 21
19 19 19 9 13 10 9 2 1 14 15 22 20 29 25 20 18 16 15 14 13 12 9 9 8 4 4 4 6 7 7 6 8 10 10 13 14 15 14 13 13 14 16 19 18 19 22 25 19

GFSSGP_850_spd_279.txt.gz
Wind_Speed
13 4 6 4 3 4 4 6 13 15 7 18 23 13 12 6 3 4 20 14 16 17 19 18 17 16 16 15 14 13 12 10 9 8 7 7 7 7 6 7 7 7 7 7 7 8 8 9 9
13 7 8 6 3 3 4 10 14 22 7 22 20 22 14 9 15 27 25 18 11 20 19 18 17 17 16 15 14 13 11 9 8 7 6 5 5 5 5 6 6 7 7 8 8 8 8 9 9
13 5 3 4 3 5 6 7 7 7 11 18 7 15 8 10 27 26 20 18 13 19 19 17 16 15 15 14 13 12 10 8 7 5 5 4 4 4 5 5 5 6 6 6 7 8 9 10 11
12 2 7 2 7 4 7 13 4 8 11 33 27 8 15 19 23 25 24 16 11 20 18 17 16 15 14 13 12 11 9 8 6 5 4 3 3 3 4 4 5 5 6 8 10 11 12 13 14
10 5 2 3 5 2 6 26 15 15 13 26 32 14 14 16 22 28 20 11 16 17 15 15 14 13 13 13 12 11 9 8 7 5 4 3 3 3 3 3 5 7 8 8 9 10 12 14 16
7 3 4 5 2 5 5 23 27 29 28 26 27 19 11 22 26 23 16 24 17 15 11 12 14 14 13 13 12 11 10 8 6 5 4 3 3 3 3 4 5 6 7 8 10 11 13 16 19
10 1 7 10 7 3 9 29 14 15 41 17 29 9 20 26 23 22 18 22 21 13 8 12 14 14 14 13 12 11 9 8 7 5 5 4 4 5 5 5 7 8 10 12 13 12 13 16 16
19 2 11 9 9 4 4 15 34 20 12 13 29 8 20 27 24 22 20 21 13 7 11 14 14 14 14 13 11 10 9 8 7 7 7 7 10 6 6 7 10 9 11 14 12 12 13 18 16
20 3 8 13 4 6 14 6 8 5 23 45 12 34 35 25 22 21 21 20 15 10 7 14 15 14 13 12 10 10 9 9 9 11 12 10 6 4 3 7 9 8 8 12 11 12 15 17 19
9 2 9 17 3 4 6 19 23 21 20 39 20 27 26 27 26 23 19 24 16 20 11 8 13 9 14 10 8 8 9 10 11 14 11 10 6 3 3 5 5 6 7 9 12 15 21 23 27
20 9 13 24 14 16 11 28 17 27 14 7 11 19 23 24 30 21 22 27 18 22 17 15 13 9 9 12 6 6 9 10 10 13 9 7 5 7 7 8 9 9 12 15 17 19 23 27 32
9 23 24 29 20 6 8 20 11 15 11 28 20 19 24 23 28 23 23 27 20 23 19 17 16 13 15 13 9 7 6 5 3 5 11 11 14 13 12 12 13 15 18 19 20 22 27 33 34
9 19 30 28 27 7 4 14 13 16 18 22 10 26 29 26 19 23 23 24 23 23 20 22 23 19 12 12 9 8 7 6 10 11 11 10 12 15 13 14 15 15 17 19 21 26 32 33 34
27 26 23 24 22 21 2 29 26 24 24 13 15 31 24 25 19 23 25 27 27 24 21 24 24 20 17 18 16 16 15 12 13 15 17 15 14 16 14 12 13 17 19 20 24 29 34 35 33
24 9 9 9 13 7 11 6 9 34 28 27 16 33 37 32 23 23 21 26 23 22 22 23 22 18 26 23 21 17 16 13 15 16 18 17 16 16 13 14 16 17 19 23 27 31 32 33 30
9 7 5 8 13 21 6 9 10 34 31 29 27 34 42 39 28 24 21 19 17 20 20 21 20 16 18 23 23 20 18 14 13 18 19 19 19 16 13 16 19 20 23 27 28 30 31 29 30
6 6 9 13 19 8 8 9 10 21 36 30 29 31 42 31 20 25 30 19 12 5 18 19 17 15 13 15 17 18 16 19 20 22 23 17 16 22 22 22 22 24 27 26 28 29 28 29 26
10 6 9 11 11 12 7 7 9 23 18 35 33 23 40 32 31 24 26 16 12 6 11 18 17 13 10 15 15 17 19 20 21 19 18 19 22 25 23 20 22 23 25 25 26 25 26 22 20
12 12 14 11 5 8 9 7 10 14 8 9 33 39 37 34 24 22 27 23 8 19 15 15 25 16 16 21 22 20 22 18 19 22 22 20 18 20 20 21 23 22 22 22 22 24 23 20 21
16 10 10 8 10 4 9 7 3 6 8 9 32 32 32 30 29 26 25 25 20 17 35 18 17 17 22 27 24 24 18 13 14 17 18 17 19 18 21 22 20 19 20 22 22 18 20 20 21
10 3 8 8 12 6 4 1 3 11 14 30 34 30 26 24 26 25 18 20 20 15 11 27 26 18 18 20 17 13 9 8 11 14 16 17 18 19 17 19 19 20 23 22 17 15 16 18 17
5 4 8 12 7 4 3 5 6 8 10 15 26 37 39 36 32 24 19 18 16 15 13 17 18 11 8 5 3 4 4 5 9 12 13 15 12 13 15 16 17 22 24 21 16 13 14 15 17
7 5 6 8 9 4 12 2 8 5 10 11 23 36 39 36 33 28 21 16 16 15 11 12 9 7 6 4 5 6 7 9 10 8 7 9 9 8 7 12 20 23 23 20 16 15 16 16 17
5 6 7 4 3 3 10 3 10 7 9 9 22 33 37 37 31 24 19 19 16 12 12 10 8 7 6 6 8 9 6 7 8 10 10 7 7 8 8 14 20 23 22 17 14 15 16 15 17
5 1 2 3 3 7 7 6 15 7 15 17 22 31 34 29 27 23 21 18 13 13 14 13 12 11 9 7 5 3 3 4 7 8 9 8 9 10 15 18 21 22 17 15 16 18 16 18 20
7 9 6 6 5 6 7 6 9 11 22 25 28 32 29 27 27 29 26 22 16 12 11 13 13 10 8 6 3 1 2 5 7 10 11 11 13 15 16 17 14 14 15 14 14 18 18 17 18
9 6 9 4 6 3 4 4 5 14 14 21 25 29 28 27 28 24 24 22 16 12 11 9 8 7 5 4 4 5 6 8 10 11 11 12 14 14 14 13 13 14 15 16 17 18 19 19 20
11 7 4 1 5 5 7 4 4 10 11 11 14 24 27 29 28 26 21 15 13 13 10 6 5 5 5 4 5 8 11 12 11 11 12 13 13 13 12 11 11 12 13 13 14 16 18 21 21
4 5 3 4 6 6 3 5 8 14 15 14 19 28 34 30 29 24 20 15 13 12 10 5 3 3 2 4 7 9 9 8 10 11 12 14 14 15 15 14 12 12 14 17 20 21 23 26 27
11 11 10 5 5 3 6 5 1 13 18 29 30 34 34 31 27 23 17 13 11 10 7 6 4 2 4 6 8 9 8 8 9 11 14 13 15 14 14 15 14 12 14 17 21 25 30 30 28

GFSSGP_850_spd_285.txt.gz
Wind_Speed
11 8 5 3 3 5 3 3 2 6 5 12 9 2 8 1 2 4 16 18 19 24 24 24 23 20 19 17 16 15 15 13 12 10 9 8 8 7 7 7 7 7 7 8 8 10 12 13 13
10 6 5 2 4 4 6 3 1 2 6 10 15 5 2 2 4 17 22 17 20 22 22 23 24 21 19 17 16 15 14 12 11 9 9 8 7 7 6 6 6 6 7 10 12 13 13 13 11
8 7 3 4 3 3 4 1 3 4 12 13 7 3 4 3 8 28 18 21 24 21 20 21 21 19 18 17 16 14 13 11 10 8 7 6 6 6 5 5 5 8 10 11 11 11 10 9 8
6 2 4 4 2 2 2 5 7 3 4 13 17 5 7 12 21 16 19 21 21 20 18 18 19 18 18 16 14 12 11 9 8 7 6 6 5 4 4 6 9 9 9 8 7 6 6 7 8
5 2 4 2 4 1 3 8 9 2 6 13 13 6 6 13 7 17 17 18 17 18 18 18 18 17 16 14 13 12 10 8 7 6 5 4 4 4 7 8 9 8 6 4 3 4 6 7 8
1 2 4 1 4 1 3 8 6 2 11 7 9 5 2 6 9 16 12 16 17 15 16 16 16 15 14 13 12 11 9 8 7 6 5 4 5 6 7 7 6 4 3 3 4 4 4 7 8
4 4 3 3 3 4 4 5 5 4 6 3 6 2 3 12 15 14 12 16 17 15 13 14 14 14 14 13 12 11 9 8 6 5 5 6 6 7 7 5 3 2 2 3 4 6 7 9 11
3 5 2 4 4 5 1 4 4 5 4 11 6 6 5 18 19 17 16 18 16 14 13 14 15 15 15 14 13 11 9 8 6 7 7 7 8 8 8 4 1 1 3 6 8 10 11 14 16
5 4 3 4 5 2 8 3 10 1 5 6 7 13 14 17 24 21 21 22 19 16 14 15 14 14 14 13 12 10 10 10 10 10 9 9 8 7 8 4 4 5 6 10 13 15 15 17 19
5 4 7 8 7 4 12 9 17 4 7 8 21 16 21 27 29 27 26 25 21 18 13 14 14 13 13 13 12 11 11 10 10 11 10 11 9 10 10 11 10 11 13 15 17 17 19 21 23
6 6 4 4 11 8 17 13 16 8 8 23 34 25 31 33 31 30 26 25 20 18 15 16 15 14 13 12 11 11 11 11 12 13 11 11 12 13 14 15 15 17 18 18 18 19 22 25 28
2 13 12 9 5 9 15 21 10 23 16 29 17 30 34 38 38 33 28 31 28 22 18 18 18 14 14 12 10 9 11 12 12 14 13 13 14 14 14 16 17 17 18 20 22 24 27 29 30
5 5 8 16 17 15 21 28 13 34 37 15 21 32 37 39 39 34 29 28 27 25 22 22 21 18 18 16 13 11 10 12 13 15 16 15 15 16 18 18 19 21 23 25 27 29 30 32 34
3 12 18 11 20 6 20 10 14 34 36 23 30 34 37 39 35 33 34 30 31 27 24 24 24 21 20 17 16 13 13 15 16 17 17 17 17 18 18 19 21 23 24 26 28 31 33 34 34
5 5 8 7 4 6 14 3 16 26 33 27 36 29 31 35 33 36 33 33 33 33 28 28 26 23 22 20 19 17 16 17 20 19 20 20 19 20 19 16 18 26 31 31 29 27 29 31 30
4 4 3 6 3 7 9 8 14 29 29 31 36 23 31 30 36 37 35 29 35 33 33 31 28 27 23 23 21 20 19 19 21 22 22 20 20 20 18 19 26 29 29 26 27 28 28 28 27
7 2 1 8 3 5 6 11 5 29 38 30 26 26 30 31 35 28 32 30 35 34 33 33 32 30 26 24 24 24 24 23 22 22 20 20 17 15 21 26 26 28 24 25 25 24 27 26 23
2 3 3 4 7 9 14 16 10 28 34 27 22 24 27 40 31 25 18 23 30 34 33 33 35 31 25 24 23 22 20 20 20 20 19 16 16 22 22 25 26 24 25 22 22 25 24 22 21
1 1 3 11 10 4 8 11 10 5 15 17 26 28 30 33 27 29 26 28 28 30 28 28 32 27 25 25 23 20 22 21 21 20 16 18 20 20 19 22 23 27 22 21 24 26 26 23 20
3 5 9 10 8 4 9 8 4 6 11 30 28 34 32 31 34 34 32 31 27 23 21 25 27 27 26 23 16 14 17 19 18 15 14 17 18 19 20 20 22 21 20 22 24 25 24 22 18
3 4 7 7 7 4 5 6 6 5 5 11 12 27 28 36 43 36 31 28 24 20 15 15 21 25 26 25 19 17 16 16 14 16 16 17 19 20 21 22 22 22 24 25 25 25 21 20 17
6 8 10 6 2 2 2 4 5 4 2 2 5 15 18 25 35 35 32 26 21 17 15 16 18 21 24 25 20 19 17 18 20 16 16 17 19 19 21 21 22 25 26 26 25 23 17 17 18
11 6 8 7 4 3 2 3 6 4 5 6 8 12 20 29 36 32 28 23 17 14 14 15 19 18 15 13 15 14 11 10 11 13 15 17 17 18 19 22 25 24 25 26 24 18 14 15 16
7 3 3 4 2 2 4 5 4 6 9 5 6 17 20 24 27 26 26 22 18 15 14 11 9 10 9 8 7 7 7 8 11 13 14 17 18 20 23 23 23 24 22 18 14 14 13 15 18
4 5 3 4 4 5 4 3 8 3 8 14 19 27 22 21 22 25 26 23 21 20 14 11 9 9 8 7 6 6 7 8 10 12 15 18 21 22 21 20 18 15 13 11 11 12 14 17 19
6 8 5 6 4 6 4 5 5 6 18 16 17 20 24 23 23 24 24 23 21 18 13 13 12 10 9 8 8 6 5 7 12 16 19 18 16 17 15 14 13 13 13 13 12 12 15 19 23
2 4 5 5 2 2 4 3 2 6 10 16 20 24 26 26 26 25 24 23 21 16 14 13 12 11 9 6 5 5 8 12 14 15 13 14 14 13 13 13 13 13 14 14 16 17 19 20 22
6 5 2 3 4 4 4 3 5 4 7 8 15 24 29 29 27 26 24 21 18 16 15 13 10 7 7 7 8 10 10 9 11 10 11 12 12 13 11 11 11 11 11 12 15 15 18 19 20
1 1 2 4 5 6 3 6 8 12 15 19 21 25 35 35 31 29 26 21 17 16 16 15 12 11 11 10 8 7 7 9 9 10 10 11 12 10 10 12 11 11 11 11 15 19 20 22 23
6 8 7 4 6 3 4 7 4 13 19 22 22 31 38 38 35 32 27 23 20 18 17 16 16 14 11 7 6 7 7 7 9 9 9 8 10 9 11 13 14 14 12 13 16 19 21 25 25

GFSSGP_850_spd_291.txt.gz
Wind_Speed
7 7 5 2 2 1 3 3 2 4 3 2 6 6 6 2 3 3 4 22 26 26 25 23 21 19 18 17 14 13 12 11 10 8 8 7 7 7 7 7 8 8 8 10 12 11 10 9 8
7 7 3 1 2 1 3 1 3 2 0 1 5 6 5 3 4 2 13 22 23 26 27 25 23 20 18 16 14 13 11 10 9 8 7 7 7 7 7 7 7 10 12 11 11 10 8 6 4
6 5 2 2 2 3 0 4 2 1 3 5 4 2 2 3 5 14 21 19 22 25 26 25 23 20 18 16 15 13 12 10 9 8 7 7 6 6 6 6 10 11 11 10 9 7 5 3 1
7 2 4 2 5 1 2 3 5 3 5 3 6 4 1 6 14 15 16 17 22 23 25 25 23 21 19 16 15 14 12 11 9 8 7 6 6 5 6 9 10 10 9 8 6 4 4 3 3
6 2 2 1 2 2 3 4 6 5 1 2 7 7 6 15 15 15 15 18 20 22 23 24 22 20 18 16 15 14 12 10 9 8 8 7 6 7 9 10 9 8 7 5 5 6 7 7 6
2 1 1 3 4 2 4 7 6 4 3 2 3 10 8 8 13 17 16 17 18 19 22 23 21 18 17 15 14 13 12 10 9 8 7 7 7 9 10 9 9 7 6 7 8 8 9 10 12
1 0 0 2 3 3 2 5 10 2 4 5 7 4 2 13 16 15 16 18 18 19 20 21 19 17 16 15 14 13 12 11 10 9 8 8 9 10 10 9 9 9 9 9 9 10 12 14 16
3 1 3 2 2 3 2 3 6 3 2 4 8 2 3 15 20 17 19 19 18 18 18 18 17 17 16 16 15 13 12 12 10 10 9 10 11 11 11 11 11 11 11 12 13 14 16 18 20
5 3 4 3 5 1 2 4 3 3 5 4 5 2 7 23 21 19 20 20 19 19 17 16 17 17 17 16 14 14 13 12 11 11 11 11 11 12 12 12 12 12 13 14 16 19 21 22 24
5 4 6 3 5 4 3 6 6 4 6 7 8 3 12 24 23 23 23 22 20 19 18 17 17 17 16 16 15 14 13 13 12 12 11 11 12 13 13 15 13 14 15 17 20 22 23 25 27
4 5 5 4 10 6 4 5 6 6 10 5 13 16 21 25 24 21 19 17 16 16 17 15 16 16 16 17 16 15 14 13 13 12 12 12 13 13 15 15 16 17 17 18 19 22 24 27 28
4 8 6 5 6 5 5 3 5 13 5 4 9 12 19 22 24 21 22 23 22 19 14 14 16 16 16 17 16 15 14 14 13 14 13 13 14 15 15 15 15 16 17 19 21 23 25 29 32
6 4 6 12 11 10 6 11 10 16 17 8 4 11 18 21 22 23 23 23 23 19 18 15 15 17 18 18 16 14 14 15 15 15 15 16 15 15 15 15 15 16 17 19 22 26 29 30 30
2 5 11 9 12 6 5 6 5 8 15 19 14 14 15 19 25 27 28 27 23 19 20 17 15 18 18 16 17 16 16 15 15 16 18 17 17 16 16 16 16 15 20 22 26 28 28 27 25
2 5 6 7 3 3 6 5 10 12 2 13 22 17 15 21 26 29 27 30 21 21 22 21 19 19 19 18 18 18 17 17 17 18 18 18 18 17 16 17 16 21 22 25 24 24 24 25 25
1 2 5 3 1 1 4 6 9 7 14 17 18 25 22 24 28 29 28 29 26 24 23 24 23 23 22 21 20 20 18 19 19 19 19 19 19 18 19 18 21 21 23 22 21 22 24 25 24
0 7 5 2 4 4 3 9 16 5 6 18 24 24 26 25 31 32 31 28 28 25 23 24 27 25 24 24 22 23 22 20 19 21 21 21 20 19 18 20 22 24 20 20 20 23 24 24 21
5 3 2 5 4 3 6 15 17 16 15 23 26 24 24 25 23 29 31 29 28 26 25 24 26 29 27 26 26 24 24 23 21 21 21 20 18 17 19 21 22 19 19 20 22 23 23 23 21
1 2 6 7 7 5 6 12 15 13 11 13 21 26 22 24 20 30 32 29 29 27 28 29 29 29 30 29 28 27 25 23 21 20 20 18 16 19 21 19 20 18 20 22 23 22 22 21 18
3 4 9 11 4 5 9 15 11 6 4 5 12 18 19 18 26 29 29 29 28 26 25 25 23 23 27 27 25 25 23 21 19 18 17 16 20 19 18 19 19 20 21 22 21 23 21 16 13
6 6 8 9 8 5 6 7 5 1 4 2 7 14 15 20 23 27 26 28 25 22 21 17 15 18 23 22 21 19 17 16 16 16 16 19 17 17 17 18 19 20 20 19 22 22 18 12 11
8 6 9 7 3 4 2 5 3 5 10 5 9 11 14 17 18 22 22 21 20 19 15 12 14 15 16 15 15 14 13 14 15 14 17 15 15 15 17 18 19 19 20 20 18 15 13 14 11
7 5 5 5 5 3 4 5 3 2 6 6 7 10 12 14 16 19 20 20 19 18 17 16 15 15 16 15 16 15 14 14 15 11 11 11 13 15 16 17 18 18 16 14 12 12 13 14 14
2 3 1 1 3 6 4 5 4 4 4 4 4 5 9 12 14 16 19 21 20 20 19 17 15 17 16 16 16 14 13 10 7 8 9 11 12 14 15 15 15 13 12 11 11 11 12 13 14
4 3 3 5 6 7 1 4 7 9 7 8 10 10 10 13 16 20 23 24 22 19 17 15 17 17 15 16 14 12 9 7 6 7 8 10 12 13 14 13 13 12 12 12 11 11 12 12 12
6 6 5 7 6 5 3 4 3 5 7 10 12 12 12 14 17 20 24 25 22 19 18 17 15 14 14 12 10 9 7 5 6 7 7 10 12 13 15 14 13 13 12 10 10 10 11 11 13
5 7 2 2 2 4 4 4 10 9 12 11 7 7 13 17 20 21 25 26 23 23 18 15 14 15 13 11 9 7 6 6 5 6 9 13 14 15 14 12 12 11 10 10 10 11 12 13 16
5 8 3 2 5 8 5 4 6 7 11 7 10 13 14 16 18 21 25 28 25 21 19 17 16 14 12 9 8 8 6 4 6 9 12 15 15 13 11 11 11 11 11 11 12 12 15 17 18
5 5 1 2 2 6 8 6 6 11 11 12 11 13 15 19 20 22 25 26 25 22 19 18 16 13 11 9 8 6 4 6 8 12 15 14 11 11 10 10 12 13 13 12 14 15 17 20 23
8 12 8 6 5 2 3 7 5 9 11 13 18 10 14 19 21 22 22 26 26 22 20 17 15 12 11 9 6 4 6 8 11 14 13 11 10 10 12 13 15 16 14 13 16 19 21 25 28